2024/03/20 00:00:00, 0.2, 3.6
2024/03/20 00:10:00, 0.2, 3.6
2024/03/20 00:20:00, 0.2, 3.5
2024/03/20 00:30:00, 0.2, 3.6
2024/03/20 00:40:00, 0.2, 3.7
2024/03/20 00:50:00, 0.2, 3.5
2024/03/20 01:00:00, 0.2, 3.5
2024/03/20 01:10:00, 0.2, 3.4
2024/03/20 01:20:00, 0.2, 3.5
2024/03/20 01:30:00, 0.2, 3.1
2024/03/20 01:40:00, 0.2, 2.8
2024/03/20 01:50:00, 0.2, 2.8
2024/03/20 02:00:00, 0.2, 2.9
2024/03/20 02:10:00, 0.2, 2.7
2024/03/20 02:20:00, 0.2, 2.6
2024/03/20 02:30:00, 0.1, 1.8
2024/03/20 02:40:00, 0.1, 1.6
2024/03/20 02:50:00, 0.2, 2.0
2024/03/20 03:00:00, 0.2, 2.0
2024/03/20 03:10:00, 0.2, 1.8
2024/03/20 03:20:00, 0.2, 1.9
2024/03/20 03:30:00, 0.2, 2.2
2024/03/20 03:40:00, 0.2, 2.0
2024/03/20 03:50:00, 0.2, 2.0
2024/03/20 04:00:00, 0.2, 1.7
2024/03/20 04:10:00, 0.2, 1.6
2024/03/20 04:20:00, 0.2, 1.4
2024/03/20 04:30:00, 0.2, 1.5
2024/03/20 04:40:00, 0.3, 1.3
2024/03/20 04:50:00, 0.3, 1.1
2024/03/20 05:00:00, 0.2, 1.1
2024/03/20 05:10:00, 0.2, 0.8
2024/03/20 05:20:00, 0.2, 0.7
2024/03/20 05:30:00, 0.3, 0.7
2024/03/20 05:40:00, 0.2, 0.8
2024/03/20 05:50:00, 0.2, 0.7
2024/03/20 06:00:00, 0.3, 0.7
2024/03/20 06:10:00, 0.3, 0.8
2024/03/20 06:20:00, 0.2, 0.5
2024/03/20 06:30:00, 0.2, 0.7
2024/03/20 06:40:00, 0.2, 0.5
2024/03/20 06:50:00, 0.2, 0.4
2024/03/20 07:00:00, 0.1, 0.1
2024/03/20 07:10:00, 0.1, 0.0
2024/03/20 07:20:00, 0.1,-0.3
2024/03/20 07:30:00, 0.3,-0.5
2024/03/20 07:40:00, 0.3,-0.4
2024/03/20 07:50:00, 0.3,-0.4
2024/03/20 08:00:00, 0.7,-0.6
2024/03/20 08:10:00, 1.1,-0.6
2024/03/20 08:20:00, 1.4,-0.6
2024/03/20 08:30:00, 1.9,-0.5
2024/03/20 08:40:00, 2.8,-0.7
2024/03/20 08:50:00, 3.4,-0.5
2024/03/20 09:00:00, 3.4,-0.5
2024/03/20 09:10:00, 3.7,-0.7
2024/03/20 09:20:00, 4.0,-0.5
2024/03/20 09:30:00, 4.5,-0.4
2024/03/20 09:40:00, 5.1,-0.3
2024/03/20 09:50:00, 5.6, 0.0
2024/03/20 10:00:00, 5.8, 0.9
2024/03/20 10:10:00, 6.0, 0.8
2024/03/20 10:20:00, 6.0, 0.5
2024/03/20 10:30:00, 6.2, 0.9
2024/03/20 10:40:00, 6.5, 0.1
2024/03/20 10:50:00, 7.3,-0.3
2024/03/20 11:00:00, 8.1,-0.5
2024/03/20 11:10:00, 9.0,-0.3
2024/03/20 11:20:00, 9.8,-0.2
2024/03/20 11:30:00,10.3,-0.4
2024/03/20 11:40:00,10.8,-0.4
2024/03/20 11:50:00,11.7,-0.3
2024/03/20 12:00:00,12.4,-0.4
2024/03/20 12:10:00,12.8,-0.3
2024/03/20 12:20:00,13.0, 0.1
2024/03/20 12:30:00,13.1,-0.2
2024/03/20 12:40:00,13.5, 1.1
2024/03/20 12:50:00,13.8,-0.2
2024/03/20 13:00:00,14.3, 0.3
2024/03/20 13:10:00,14.7,-0.6
2024/03/20 13:20:00,15.2,-0.5
2024/03/20 13:30:00,15.5, 0.0
2024/03/20 13:40:00,15.9,-0.7
2024/03/20 13:50:00,16.6, 0.4
2024/03/20 14:00:00,16.8,-0.3
2024/03/20 14:10:00,16.9,-0.2
2024/03/20 14:20:00,16.9,-0.6
2024/03/20 14:30:00,17.3,-0.6
2024/03/20 14:40:00,17.9,-1.1
2024/03/20 14:50:00,18.6,-1.2
2024/03/20 15:00:00,18.7,-0.6
2024/03/20 15:10:00,18.7,-1.1
2024/03/20 15:20:00,18.6,-0.9
2024/03/20 15:30:00,18.8,-1.2
2024/03/20 15:40:00,19.0,-1.3
2024/03/20 15:50:00,18.9,-0.9
2024/03/20 16:00:00,19.1,-1.3
2024/03/20 16:10:00,19.6,-1.6
2024/03/20 16:20:00,19.9,-1.2
2024/03/20 16:30:00,20.0,-1.4
2024/03/20 16:40:00,19.9,-1.1
2024/03/20 16:50:00,19.8,-1.2
2024/03/20 17:00:00,20.1,-1.3
2024/03/20 17:10:00,20.1,-1.6
2024/03/20 17:20:00,20.0,-1.6
2024/03/20 17:30:00,19.9,-1.5
2024/03/20 17:40:00,19.9,-1.8
2024/03/20 17:50:00,19.9,-1.7
2024/03/20 18:00:00,19.8,-2.1
2024/03/20 18:10:00,19.8,-2.3
2024/03/20 18:20:00,19.7,-2.1
2024/03/20 18:30:00,19.6,-2.4
2024/03/20 18:40:00,19.6,-2.4
2024/03/20 18:50:00,19.6,-2.4
2024/03/20 19:00:00,19.6,-2.6
2024/03/20 19:10:00,19.6,-2.6
2024/03/20 19:20:00,19.5,-2.6
2024/03/20 19:30:00,19.4,-2.7
2024/03/20 19:40:00,19.4,-2.6
2024/03/20 19:50:00,19.4,-2.7
2024/03/20 20:00:00,19.4,-2.7
2024/03/20 20:10:00,19.4,-2.9
2024/03/20 20:20:00,19.3,-2.6
2024/03/20 20:30:00,19.2,-2.8
2024/03/20 20:40:00,19.3,-3.0
2024/03/20 20:50:00,19.2,-2.8
2024/03/20 21:00:00,19.2,-3.1
2024/03/20 21:10:00,19.2,-3.0
2024/03/20 21:20:00,19.3,-2.9
2024/03/20 21:30:00,19.3,-2.9
2024/03/20 21:40:00,19.2,-3.0
2024/03/20 21:50:00,19.1,-3.0
2024/03/20 22:00:00,19.2,-3.1
2024/03/20 22:10:00,19.2,-3.0
2024/03/20 22:20:00,19.2,-3.0
2024/03/20 22:30:00,19.1,-3.2
2024/03/20 22:40:00,19.1,-3.2
2024/03/20 22:50:00,19.1,-3.3
2024/03/20 23:00:00,19.1,-3.3
2024/03/20 23:10:00,19.0,-3.4
2024/03/20 23:20:00,19.0,-3.4
2024/03/20 23:30:00,19.0,-3.2
2024/03/20 23:40:00,19.2,-3.4
2024/03/20 23:50:00,19.4,-3.6
